Regional Weather Roundup
Issued by NWS

Home | Current Version | Previous Version | Text Only | Print | Product List | Glossary Off
Versions: 1 2 3 4 5 6 7 8 9 10 11 12 13 14 15 16 17 18 19 20 21 22 23 24 25 26 27 28 29 30 31 32 33 34 35 36 37 38 39 40 41 42 43 44 45 46 47 48 49 50

000
ASUS43 KFSD 122002
RWRSD

WEATHER ROUNDUP FOR SOUTH DAKOTA
NATIONAL WEATHER SERVICE SIOUX FALLS SD
300 PM CDT SAT JUL 12 2014

NOTE: "FAIR" INDICATES FEW OR NO CLOUDS BELOW 12,000 FEET WITH NO
SIGNIFICANT WEATHER AND/OR OBSTRUCTIONS TO VISIBILITY.


SDZ001>005-009-010-012>017-122100-
NORTHWEST AND NORTH CENTRAL SOUTH DAKOTA

CITY           SKY/WX    TMP DP  RH WIND       PRES   REMARKS
BUFFALO          N/A     80  59  48 N10G20    30.10S
FAITH            N/A     78  63  59 MISG      30.13F
MOBRIDGE       SUNNY     77  64  64 VRB5      30.07F
$$

SDZ012>016-024>037-041>051-057-063-072>074-122100-
SOUTHWEST AND SOUTH CENTRAL SOUTH DAKOTA

CITY           SKY/WX    TMP DP  RH WIND       PRES   REMARKS
RAPID CTY ARPT MOSUNNY   76  64  66 SE5       30.16F
PIERRE         SUNNY     78  65  63 N10G16    30.08F
CUSTER         CLOUDY    72  59  63 S9        30.27F
PHILIP         MOSUNNY   82  61  48 S7        30.09F
PINE RIDGE     SUNNY     78  59  51 CALM      30.18S
WINNER         FAIR      84  64  50 NW5       30.07F
$$

SDZ004>011-016>023-039-040-122100-
NORTHEAST SOUTH DAKOTA

CITY           SKY/WX    TMP DP  RH WIND       PRES   REMARKS
ABERDEEN       MOSUNNY   77  59  53 W8        30.05F
WATERTOWN      CLOUDY    73  64  73 VRB3      30.05R
SISSETON         N/A     79  60  52 VRB5      30.01S
$$

SDZ017-020-022-023-036>040-048>070-122100-
SOUTHEAST SOUTH DAKOTA

CITY           SKY/WX    TMP DP  RH WIND       PRES   REMARKS
SIOUX FALLS    MOSUNNY   79  65  62 N9        30.02F
HURON          PTSUNNY   76  65  68 N5        30.05R
CHAMBERLAIN    MOSUNNY   78  66  66 S3        30.06F
MITCHELL       MOSUNNY   80  67  64 E6        30.04F
YANKTON        PTSUNNY   75  66  73 N9        30.03S
$$

ABBREVIATIONS USED IN REMARKS
   TC - TEMPERATURE IN CELSIUS
  WCI - WIND CHILL INDEX
   HX - HEAT INDEX
  VSB - VISIBILITY



USA.gov is the U.S. government's official web portal to all federal, state and local government web resources and services.